sat.trackr.live / text

‹ back to catalog

TIRSAT

NORAD 58989 · 2024-032C

PAYLOAD ACTIVE UNKNOWN

§ Identity

Operator
Country
JPN
Launch date
2024-02-17
Launch site
TANSC
Launch vehicle
Mass (kg)
RCS (m²)

External: N2YO · Heavens-Above · Gunter

§ Orbital elements

Epoch: 2026-05-25T03:19:33.369888Z

Period
97.80 min
Inclination
97.9977°
Eccentricity
0.0004206
Mean motion
14.72395142 rev/d
Perigee alt
650.5 km
Apogee alt
656.4 km
Semi-major
7,031.6 km
B*
1.5823e-4
RAAN
203.8429°
Arg perigee
205.3433°
Mean anomaly
154.7568°
Rev number
12,169

§ Raw data

TIRSAT1 58989U 24032C   26145.13858067  .00000953  00000+0  15823-3 0  99942 58989  97.9977 203.8429 0004206 205.3433 154.7568 14.72395142121692

JSON: /api/v1/satellites/58989 · /tle

For live sub-satellite position, see the globe view (requires WebGL).

§ Visibility from observer

Set your observer location to see the next 7 days of passes ≥ 10°. The values pass through the URL so the page stays shareable.

No JS? Fill the form by hand. The geolocation button needs JavaScript.

§ Radio — SatNOGS DB

ModeDescriptionDownlinkUplink
BPSK S-band telemetry 2.277 GHz

1 transmitter · refreshed weekly from db.satnogs.org